DateTimeUTC,F1_A11,F1_S11,BsB_S11,BsG_S11,BsR_S11,BbsB_S11,BbsG_S11,BbsR_S11,BaB_A11,BaG_A11,BaR_A11,Tu_S11,T_S11,Uu_S11,U_S11,P_S11,T1_A11
2021-06-09T12:00:00Z,00000200,20000000,,,,,,,0000.30,-000.24,-000.54,18.6,25.1,06.5,04.4,0666.9,31.0
2021-06-09T12:01:00Z,00000200,20000000,,,,,,,-000.31,0000.21,0000.49,18.6,25.1,06.5,04.4,0666.9,31.0
2021-06-09T12:02:00Z,00000200,20000000,,,,,,,0000.09,-000.19,0000.05,18.6,25.1,06.5,04.4,0666.9,31.0
2021-06-09T12:03:00Z,00000200,60000000,,,,,,,0000.43,0000.38,0000.26,18.6,25.1,06.5,04.4,0666.9,31.0
2021-06-09T12:04:00Z,00000200,40000000,0001.66,0000.72,0000.36,0000.35,0000.17,-000.03,0000.55,0000.34,0000.10,18.8,25.0,06.8,04.7,0667.8,31.0
2021-06-09T12:05:00Z,00000200,00000000,0001.64,0000.86,-000.03,-000.20,0000.29,-000.07,-000.04,0000.23,0000.27,18.9,25.0,06.8,04.7,0667.8,31.0
2021-06-09T12:06:00Z,00000200,00000000,0000.45,0000.68,0000.24,0000.43,0000.04,0000.08,0000.46,0000.40,0000.35,18.9,25.0,06.7,04.6,0667.9,31.0
2021-06-09T12:07:00Z,00000200,00000000,0001.36,0000.76,0000.43,0000.18,0000.30,0000.07,0000.40,0000.49,0000.34,18.9,25.0,06.8,04.7,0667.9,31.0
2021-06-09T12:08:00Z,00000200,00000000,0000.75,0000.67,0000.47,-000.27,0000.08,0000.20,0000.38,0000.33,0000.42,18.9,25.0,06.9,04.7,0667.8,31.0
2021-06-09T12:09:00Z,00000200,00000000,0001.81,0000.81,0000.40,0000.27,-000.11,0000.00,0000.13,-000.34,-000.15,18.9,25.0,06.9,04.8,0667.8,31.0
2021-06-09T12:10:00Z,00000200,00000000,0001.80,0000.70,0000.44,0000.07,0000.20,0000.36,0000.21,0000.30,0000.28,18.9,25.0,06.7,04.7,0667.8,31.1
2021-06-09T12:11:00Z,00000200,00000000,0000.91,0000.66,0000.53,0000.15,0000.09,-000.03,0000.53,0000.37,0000.37,18.9,25.0,07.0,04.8,0667.8,31.1
2021-06-09T12:12:00Z,00000200,00000000,0000.77,0001.10,0000.38,0000.19,0000.27,0000.35,0000.79,0000.88,0000.44,18.9,25.0,06.9,04.8,0667.8,31.1
2021-06-09T12:13:00Z,00000200,00000000,0002.16,0000.84,0000.47,0000.66,0000.22,0000.24,0000.22,0000.01,-000.13,18.9,25.0,07.0,04.8,0667.8,31.1
2021-06-09T12:14:00Z,00000200,00000000,0001.48,0001.17,0000.32,-000.23,0000.04,-000.10,0000.26,0000.38,0000.28,18.9,25.0,06.8,04.7,0667.8,31.1
2021-06-09T12:15:00Z,00000200,00000000,0001.10,0001.13,0000.44,0000.34,0000.26,0000.06,0000.38,0000.63,0000.34,18.9,25.0,06.9,04.8,0667.8,31.1
2021-06-09T12:16:00Z,00000200,00000000,0001.24,0000.72,0000.36,0000.21,-000.10,0000.10,0000.11,0000.55,0000.32,19.0,25.0,06.8,04.7,0667.8,31.1
2021-06-09T12:17:00Z,00000200,00000000,0001.88,0000.61,0000.49,0000.26,0000.08,0000.29,0000.23,-000.29,-000.12,19.0,25.0,06.8,04.7,0667.7,31.1
2021-06-09T12:18:00Z,00000200,00000000,0001.75,0000.67,0000.59,0000.66,0000.14,0000.27,0000.44,0000.42,0000.48,19.0,25.0,06.8,04.7,0667.8,31.1
2021-06-09T12:19:00Z,00000200,00000000,0001.91,0000.89,0000.52,0000.58,0000.18,0000.55,0000.26,-000.03,0000.10,19.0,25.0,06.9,04.7,0667.8,31.1
2021-06-09T12:20:00Z,00000200,00000000,0001.05,0000.66,0000.58,0000.10,0000.39,0000.35,0000.36,-000.06,-000.00,19.0,25.0,06.7,04.6,0667.8,31.1
2021-06-09T12:21:00Z,00000200,00000000,0001.08,0000.72,0000.43,0000.16,0000.29,0000.44,0000.12,0000.54,0000.27,19.0,25.0,06.7,04.6,0667.8,31.1
2021-06-09T12:22:00Z,00000200,00000000,0001.75,0000.75,0000.25,-000.01,-000.01,-000.10,0000.42,0000.17,0000.27,19.0,25.1,06.9,04.7,0667.8,31.1
2021-06-09T12:23:00Z,00000200,00000000,0000.88,0001.02,0000.47,0000.15,0000.01,0000.12,0000.51,0000.61,0000.32,19.0,25.0,06.8,04.7,0667.8,31.1
2021-06-09T12:24:00Z,00000200,00000000,0000.93,0000.43,0000.56,-000.15,0000.15,0000.09,0000.02,0000.33,0000.12,19.0,25.0,06.8,04.7,0667.8,31.1
2021-06-09T12:25:00Z,00000200,00000000,0000.77,0000.26,0000.28,0000.16,0000.13,0000.13,-000.27,-000.54,-000.26,19.0,25.1,06.7,04.6,0667.8,31.1
2021-06-09T12:26:00Z,00000200,00000000,0000.92,0000.32,0000.33,0000.16,0000.19,0000.16,0000.34,0000.41,0000.10,19.0,25.1,06.4,04.4,0667.7,31.1
2021-06-09T12:27:00Z,00000200,00000000,0000.22,0000.31,0000.14,0000.18,0000.08,0000.11,0000.31,-000.13,0000.43,19.0,25.1,06.5,04.5,0667.7,31.1
2021-06-09T12:28:00Z,00000200,00000000,0001.16,0000.64,-000.07,-000.22,-000.06,0000.09,-000.14,0000.81,-000.08,19.0,25.1,06.5,04.5,0667.7,31.1
2021-06-09T12:29:00Z,00000200,00000000,0001.50,0000.62,0000.45,0000.55,-000.15,0000.05,0000.22,-000.81,0000.24,19.0,25.1,06.4,04.4,0667.6,31.1
2021-06-09T12:30:00Z,00000200,00000000,0001.02,0000.36,0000.26,0000.04,-000.06,0000.23,0000.12,0000.51,0000.11,19.0,25.1,06.3,04.4,0667.6,31.1
2021-06-09T12:31:00Z,00000200,00000000,0000.79,0000.63,0000.17,0000.51,0000.27,0000.32,0000.25,0000.10,0000.13,19.0,25.1,06.4,04.4,0667.6,31.1
2021-06-09T12:32:00Z,00000200,00000000,0000.97,0000.59,0000.24,0000.33,0000.17,0000.01,0000.25,0000.42,0000.10,19.1,25.1,06.5,04.5,0667.6,31.1
2021-06-09T12:33:00Z,00000200,00000000,0000.38,0000.35,0000.35,0000.53,0000.04,0000.43,0000.22,0000.01,-000.35,19.1,25.1,06.4,04.4,0667.6,31.1
2021-06-09T12:34:00Z,00000200,00000000,0000.03,0000.49,0000.37,-000.06,-000.12,0000.14,0000.23,0000.25,0000.52,19.1,25.1,06.4,04.5,0667.6,31.1
2021-06-09T12:35:00Z,00000200,00000000,0001.33,0000.34,0000.24,0000.08,0000.07,-000.20,-000.11,0000.25,-000.17,19.1,25.1,06.4,04.4,0667.6,31.1
2021-06-09T12:36:00Z,00000200,00000000,0001.03,0000.18,0000.16,0000.45,0000.12,0000.14,0000.67,0000.53,0000.85,19.1,25.1,06.4,04.5,0667.6,31.1
2021-06-09T12:37:00Z,00000200,00000000,0001.50,0000.53,0000.33,0000.06,0000.22,0000.09,-000.03,-000.14,-000.26,19.1,25.1,06.4,04.5,0667.6,31.1
2021-06-09T12:38:00Z,00000200,00000000,0000.68,0000.47,0000.29,0000.17,0000.22,-000.14,0000.23,0000.45,0000.18,19.1,25.1,06.3,04.4,0667.6,31.0
2021-06-09T12:39:00Z,00000200,00000000,0000.61,0000.52,0000.43,-000.28,-000.12,-000.12,0000.51,-000.09,0000.35,19.1,25.1,06.3,04.4,0667.6,31.1
2021-06-09T12:40:00Z,00000200,00000000,0001.09,0000.65,0000.30,0000.19,0000.03,0000.03,-000.32,0000.13,-000.13,19.1,25.1,06.3,04.4,0667.5,31.1
2021-06-09T12:41:00Z,00000200,00000000,0000.77,0000.38,0000.17,0000.21,0000.04,0000.04,0000.42,0000.01,0000.41,19.2,25.1,06.3,04.4,0667.5,31.1
2021-06-09T12:42:00Z,00000200,00000000,0000.83,0000.83,0000.27,0000.22,0000.20,-000.11,0000.19,0000.95,0000.30,19.2,25.1,06.4,04.4,0667.5,31.1
2021-06-09T12:43:00Z,00000200,00000000,0000.71,0000.48,0000.27,0000.26,0000.21,0000.09,0000.24,0000.07,-000.03,19.2,25.1,06.3,04.4,0667.5,31.1
2021-06-09T12:44:00Z,00000200,00000000,0001.44,0000.48,0000.30,0000.59,0000.09,0000.22,0000.34,-000.12,0000.28,19.2,25.1,06.4,04.4,0667.5,31.1
2021-06-09T12:45:00Z,00000200,00000000,0000.91,0000.56,0000.18,0000.61,0000.26,0000.12,0000.21,0000.23,0000.05,19.3,25.2,06.3,04.4,0667.5,31.1
2021-06-09T12:46:00Z,00000200,00000000,0000.70,0000.98,0000.20,0000.31,0000.28,0000.35,0000.34,0000.43,0000.18,19.3,25.2,06.2,04.3,0667.5,31.1
2021-06-09T12:47:00Z,00000200,00000000,0000.79,0000.75,0000.56,0000.07,0000.40,0000.14,0000.19,-000.11,0000.04,19.4,25.2,06.3,04.4,0667.5,31.1
2021-06-09T12:48:00Z,00000200,00000000,0001.34,0000.57,0000.42,0000.59,-000.03,0000.19,0000.43,0000.58,0000.28,19.4,25.2,06.3,04.4,0667.5,31.1
2021-06-09T12:49:00Z,00000200,00000000,0001.20,0000.16,0000.59,0000.36,0000.23,-000.04,-000.15,0000.19,0000.17,19.4,25.2,06.2,04.3,0667.5,31.1
2021-06-09T12:50:00Z,00000200,00000000,0000.75,0000.29,0000.26,0000.84,0000.21,0000.27,0000.43,0000.18,-000.14,19.5,25.2,06.3,04.4,0667.5,31.1
2021-06-09T12:51:00Z,00000200,00000000,0001.13,0000.41,0000.30,0000.60,0000.06,0000.33,0000.42,0000.03,0000.37,19.5,25.3,06.2,04.4,0667.5,31.1
2021-06-09T12:52:00Z,00000200,00000000,0001.11,0000.44,0000.39,0000.30,0000.11,0000.06,0000.50,0000.21,0000.31,19.5,25.3,06.2,04.4,0667.5,31.1
2021-06-09T12:53:00Z,00000200,00000000,0001.70,0000.49,0000.12,0000.60,0000.22,-000.25,0000.18,0000.57,0000.43,19.5,25.3,06.1,04.3,0667.5,31.1
2021-06-09T12:54:00Z,00000200,00000000,0001.28,0000.66,0000.55,-000.16,-000.00,0000.23,-000.13,0000.10,0000.18,19.6,25.3,06.2,04.3,0667.5,31.1
2021-06-09T12:55:00Z,00000200,00000000,0000.68,0000.18,0000.51,-000.10,-000.07,-000.18,0000.30,0000.19,-000.12,19.6,25.3,06.2,04.3,0667.5,31.1
2021-06-09T12:56:00Z,00000200,00000000,0000.84,0000.26,0000.45,-000.26,-000.01,0000.18,0000.33,0000.42,0000.23,19.6,25.4,06.1,04.3,0667.5,31.1
2021-06-09T12:57:00Z,00000200,40000000,,,,,,,0000.44,0000.23,0000.06,19.7,25.4,05.8,04.1,0667.5,31.1
2021-06-09T12:58:00Z,00000200,60000000,,,,,,,-000.31,-000.30,0000.33,19.5,25.4,06.2,04.3,0666.5,31.1
2021-06-09T12:59:00Z,00000200,20000000,,,,,,,-000.29,0000.19,-000.47,19.5,25.5,06.2,04.3,0666.5,31.1
